{"data":{"norad_id":48359,"intl_designator":"2021-038G","name":"STARLINK-2628","alt_names":[],"object_type":"PAYLOAD","status":"ACTIVE","operator":null,"country":"US","launch_date":"2021-05-04","launch_site_code":"AFETR","launch_vehicle":null,"mission":null,"orbit_class":"UNKNOWN","rcs_meters":null,"size_class":null,"mass_kg":null,"dimensions":null,"purposes":["comms"],"wikipedia_slug":null,"has_3d_model":false,"image_url":null,"decayed_at":null,"tle_current":{"epoch":"2026-05-25T00:45:16.629408Z","epoch_age_seconds":69002,"freshness":"FRESH","line1":"1 48359U 21038G   26145.03144247  .00006044  00000+0  20621-3 0  9993","line2":"2 48359  53.1603   3.4021 0001148  92.4788 267.6345 15.31722279278763","mean_motion":15.31722279,"eccentricity":0.0001148,"inclination_deg":53.1603,"raan_deg":3.4021,"arg_perigee_deg":92.4788,"mean_anomaly_deg":267.6345,"bstar":0.00020621,"rev_number":27876,"period_min":94.011820533166,"perigee_km":469.88734003595,"apogee_km":471.45982694592,"semimajor_km":6848.8105834909,"source":"CELESTRAK","updated_at":"2026-05-25T13:38:16.685498Z"}}}